Weather History for Ostrava, Czech Republic

Change the Weather History Date:

Thursday, November 7, 2013

  Actual Average (EPKT) Record (EPKT)
Temperature  
Mean Temperature 50 °F -  
Max Temperature 57 °F 42 °F 62 °F (2011)
Min Temperature 42 °F 32 °F 17 °F (2002)
Degree Days  
Heating Degree Days 16    
Moisture  
Dew Point 46 °F    
Average Humidity 80    
Maximum Humidity 93    
Minimum Humidity 64    
Precipitation  
Precipitation 0.00 in 0.06 in - ()
Sea Level Pressure  
Sea Level Pressure 29.83 in    
Wind  
Wind Speed 14 mph ()    
Max Wind Speed 23 mph    
Max Gust Speed -    
Visibility 6.8 miles    
Events Rain    
Averages and records for this station are not official NWS values.
T = Trace of Precipitation, MM = Missing Value Source: Averaged Metar Reports

Daily Weather History Graph

Daily Weather History Graph

Search for Another Location

Airport:

Trip Planner

Search our weather history database for the weather conditions in past years. The results will help you decide how hot, cold, wet, or windy it might be!

Date:

Astronomy

Nov. 07, 2013 Rise Set
Actual Time 6:46 AM CET 4:15 PM CET
Civil Twilight 6:11 AM CET 4:49 PM CET
Nautical Twilight 5:33 AM CET 5:28 PM CET
Astronomical Twilight 4:55 AM CET 6:05 PM CET
Moon 10:45 AM CET (11/7) 8:01 PM CET (11/7)
Length of Visible Light 10h 37m
Length of Day
9h 29m
Waxing Crescent, 20% of the Moon is Illuminated
Nov 7
Waxing Crescent
Nov 10
First Quarter
Nov 17
Full
Nov 25
Last Quarter
Dec 3
New

Hourly Weather History & Observations

Time (CET) Temp. Windchill Dew Point Humidity Pressure Visibility Wind Dir Wind Speed Gust Speed Precip Events Conditions
12:00 AM 42.8 °F 36.6 °F 37.4 °F 81% 29.77 in - SSW 11.5 mph - N/A   Clear
12:30 AM 44.6 °F 38.4 °F 37.4 °F 76% 29.77 in - SSW 12.7 mph - N/A   Clear
1:00 AM 44 °F - 38 °F 73% 29.82 in 12 mi SSW 13.4 mph - - Rain Light Rain
1:00 AM 44.6 °F 38.4 °F 37.4 °F 76% 29.77 in 6.2 mi SSW 12.7 mph - N/A Rain Light Rain
1:30 AM 44.6 °F 38.4 °F 39.2 °F 81% 29.80 in 6.2 mi SSW 12.7 mph - N/A Rain Light Rain
2:00 AM 44.6 °F 38.1 °F 39.2 °F 81% 29.80 in 6.2 mi SW 13.8 mph - N/A Rain Light Rain
2:30 AM 44.6 °F 37.8 °F 39.2 °F 81% 29.80 in 6.2 mi SW 15.0 mph - N/A Rain Light Rain
3:00 AM 44.6 °F 37.4 °F 41.0 °F 87% 29.80 in 6.2 mi SW 16.1 mph - N/A Rain Light Rain
3:30 AM 44.6 °F 38.1 °F 41.0 °F 87% 29.80 in 6.2 mi SW 13.8 mph - N/A Rain Light Rain
4:00 AM 44.6 °F 38.4 °F 42.8 °F 93% 29.80 in 6.2 mi SW 12.7 mph - N/A Rain Light Rain
4:30 AM 44.6 °F 40.2 °F 42.8 °F 93% 29.80 in 6.2 mi SSW 8.1 mph - N/A Rain Light Rain
5:00 AM 44.6 °F 38.8 °F 42.8 °F 93% 29.77 in 6.2 mi SSW 11.5 mph - N/A Rain Light Rain
5:30 AM 44.6 °F 39.2 °F 41.0 °F 87% 29.80 in 6.2 mi SSW 10.4 mph - N/A   Mostly Cloudy
6:00 AM 44.6 °F 38.8 °F 42.8 °F 93% 29.77 in 6.2 mi SSW 11.5 mph - N/A   Mostly Cloudy
6:30 AM 44.6 °F 38.8 °F 42.8 °F 93% 29.77 in 6.2 mi SSW 11.5 mph - N/A   Mostly Cloudy
7:00 AM 44.6 °F 37.8 °F 42.8 °F 93% 29.77 in 6.2 mi SSW 15.0 mph - N/A   Mostly Cloudy
7:30 AM 46.4 °F 39.5 °F 42.8 °F 87% 29.74 in 6.2 mi SSW 17.3 mph - N/A   Mostly Cloudy
8:00 AM 48.2 °F - 44.6 °F 87% 29.77 in 6.2 mi SSW 20.7 mph - N/A   Mostly Cloudy
8:30 AM 50.0 °F - 46.4 °F 87% 29.77 in 6.2 mi SSW 23.0 mph - N/A   Mostly Cloudy
9:00 AM 50.0 °F - 46.4 °F 87% 29.80 in 6.2 mi SSW 18.4 mph - N/A   Mostly Cloudy
9:30 AM 50.0 °F - 46.4 °F 87% 29.80 in 6.2 mi SSW 16.1 mph - N/A   Mostly Cloudy
10:00 AM 51.8 °F - 46.4 °F 82% 29.80 in 6.2 mi SSW 11.5 mph - N/A   Overcast
10:30 AM 51.8 °F - 46.4 °F 82% 29.80 in 6.2 mi SSW 12.7 mph - N/A   Mostly Cloudy
11:00 AM 53.6 °F - 48.2 °F 82% 29.83 in 6.2 mi SW 17.3 mph - N/A   Mostly Cloudy
11:30 AM 53.6 °F - 48.2 °F 82% 29.80 in 6.2 mi SW 20.7 mph - N/A   Mostly Cloudy
12:00 PM 55.4 °F - 48.2 °F 77% 29.80 in 6.2 mi SW 17.3 mph - N/A   Mostly Cloudy
12:30 PM 55.4 °F - 48.2 °F 77% 29.83 in 6.2 mi SW 15.0 mph - N/A   Mostly Cloudy
1:00 PM 55 °F - 49 °F 73% 29.83 in 16 mi SW 20.1 mph - -   Scattered Clouds
1:00 PM 55.4 °F - 48.2 °F 77% 29.83 in 6.2 mi SW 20.7 mph - N/A   Partly Cloudy
1:30 PM 57.2 °F - 48.2 °F 72% 29.83 in 6.2 mi SW 16.1 mph - N/A   Scattered Clouds
2:00 PM 55.4 °F - 50.0 °F 82% 29.83 in 6.2 mi SSW 16.1 mph - N/A   Mostly Cloudy
2:30 PM 57.2 °F - 50.0 °F 77% 29.86 in 6.2 mi SW 13.8 mph - N/A   Mostly Cloudy
3:00 PM 57.2 °F - 50.0 °F 77% 29.86 in 6.2 mi SW 9.2 mph - N/A   Partly Cloudy
3:30 PM 57.2 °F - 50.0 °F 77% 29.86 in 6.2 mi SW 12.7 mph - N/A   Scattered Clouds
4:00 PM 57.2 °F - 50.0 °F 77% 29.83 in 6.2 mi SW 19.6 mph - N/A   Partly Cloudy
4:30 PM 57.2 °F - 50.0 °F 77% 29.86 in 6.2 mi SSW 23.0 mph - N/A   Partly Cloudy
5:00 PM 57.2 °F - 50.0 °F 77% 29.86 in - SSW 20.7 mph - N/A   Clear
5:30 PM 57.2 °F - 48.2 °F 72% 29.86 in 6.2 mi SSW 21.9 mph - N/A   Scattered Clouds
6:00 PM 57.2 °F - 48.2 °F 72% 29.89 in 6.2 mi SW 21.9 mph - N/A   Scattered Clouds
6:30 PM 57.2 °F - 48.2 °F 72% 29.89 in 6.2 mi SW 18.4 mph - N/A   Scattered Clouds
7:00 PM 57 °F - 48 °F 64% 29.91 in 16 mi SSW 20.1 mph - -   Partly Cloudy
7:00 PM 57.2 °F - 48.2 °F 72% 29.89 in 6.2 mi SSW 19.6 mph - N/A   Scattered Clouds
7:30 PM 57.2 °F - 48.2 °F 72% 29.89 in 6.2 mi SW 19.6 mph - N/A   Partly Cloudy
8:00 PM 55.4 °F - 48.2 °F 77% 29.89 in - SSW 16.1 mph - N/A   Clear
8:30 PM 55.4 °F - 48.2 °F 77% 29.92 in 6.2 mi SW 17.3 mph - N/A   Partly Cloudy
9:00 PM 53.6 °F - 48.2 °F 82% 29.92 in - SW 15.0 mph - N/A   Clear
9:30 PM 53.6 °F - 48.2 °F 82% 29.92 in - SSW 10.4 mph - N/A   Clear
10:00 PM 55.4 °F - 46.4 °F 72% 29.92 in - SW 11.5 mph - N/A   Clear
10:30 PM 55.4 °F - 46.4 °F 72% 29.92 in - SSW 12.7 mph - N/A   Clear
11:00 PM 55.4 °F - 46.4 °F 72% 29.92 in - SSW 13.8 mph - N/A   Clear
11:30 PM 55.4 °F - 46.4 °F 72% 29.92 in - SSW 11.5 mph - N/A   Clear